User: anonymous   Login
Location: Caracas
(10.5033°N, 66.8422°W)
Time: 15:31:17
(UTC-04:00)
Language:

Vanguard 2 Rocket - Orbit

View from above orbital plane
View from above orbital plane
View from above satellite
View from above satellite

Ground track
Ground track

The orbit data is extracted from the following two-line orbital elements,

1 00012U 59001B   18015.85061169  .00000146  00000-0  90012-4 0  9996
2 00012  32.8943 202.2159 1664958 110.7973 267.8475 11.44161488421321
Epoch (UTC): 15 January 2018 20:24:52
Eccentricity: 0.1664958
inclination: 32.8943°
perigee height: 556 km
apogee height: 3326 km
right ascension of ascending node: 202.2159°
argument of perigee: 110.7973°
revolutions per day: 11.44161488
mean anomaly at epoch: 267.8475°
orbit number at epoch: 42132

The dashed part of the orbit path shows where the satellite is in the earth's shadow,  

DLR